[[{"header":{"parameterUnit":"m.s-1","parameterCategory":1,"la1":30.2991,"la2":30.254,"lo1":-89.0895,"lo2":-89.0444,"dy":0.0017,"dx":0.0017,"nx":28,"ny":28,"refTime":"2024-09-28T03:00:00:Z","depth":0,"parameterNumber":2,"parameterNumberName":"U-component_of_WINDS"},"data":[0,0,0,0,0,0,0,0,0,0,0,0,0,0,0,0,0,0,0,0,0,0,0,0,0,0,0,0,0,0,0,0,0,0,0,0,0,0,0,0,0,0,0,0,0,0,0,0,0,0,0,0,0,0,0,0,0,0,2.2078,2.2079,0,2.2112,2.2113,2.2113,2.2093,2.2092,2.2092,2.2091,2.2126,2.2127,2.2129,0,0,0,0,0,0,0,0,0,0,0,0,0,2.1997,2.1999,2.2078,2.2079,2.2079,2.2112,2.2113,2.2113,2.2094,2.2092,2.2091,2.209,2.2125,2.2127,2.2129,0,0,0,0,0,0,0,0,0,0,0,0,0,2.2032,2.2,2.2078,2.2073,2.2073,2.2112,2.2113,2.2113,2.2094,2.2092,2.2091,2.209,2.2124,2.2127,2.213,2.2175,0,0,2.2138,2.2139,0,0,0,0,0,0,0,0,2.203,2.2035,2.2074,2.2074,2.2074,2.2097,2.2097,2.2134,2.2094,2.2086,2.2091,2.2089,2.2117,2.2121,2.213,2.2177,2.2178,2.2138,2.214,2.2141,2.2142,0,0,0,0,0,0,0,2.2028,2.2034,2.2092,2.2074,2.2074,2.207,2.2073,2.2104,2.2109,2.2087,2.2085,2.209,2.2117,2.2128,2.2131,2.2179,2.2138,2.2141,2.2142,2.2143,2.2266,2.2267,0,0,0,0,0,0,2.2026,2.2032,2.2091,2.2093,2.2048,2.2072,2.2076,2.2091,2.2109,2.211,2.2091,2.2089,2.2124,2.2128,2.2132,2.2187,2.2141,2.2144,2.2145,2.2264,2.2266,2.2268,0,0,0,0,0,0,2.2024,2.2031,2.2089,2.2062,2.2069,2.2075,2.2092,2.2093,2.2103,2.2112,2.2113,2.21,2.2123,2.2128,2.2165,2.2188,2.2145,2.2147,2.2262,2.2265,2.2267,2.2297,0,0,0,0,0,0,2.2022,2.2031,2.2048,2.2062,2.207,2.2122,2.2094,2.2094,2.2108,2.2105,2.2121,2.2123,2.2122,2.2161,2.2168,2.2191,2.215,2.226,2.2263,2.2266,2.2294,2.2301,2.2306,0,0,0,0,0,2.2019,2.2055,2.2049,2.2056,2.2092,2.2123,2.2127,2.2126,2.211,2.2127,2.2133,2.2122,2.2184,2.2165,2.2172,2.2197,2.2259,2.2263,2.2266,2.2292,2.2299,2.2306,0,0,0,0,0,0,2.2043,2.2057,2.205,2.2092,2.2106,2.2119,2.2141,2.2134,2.2153,2.215,2.2147,2.2151,2.2189,2.2197,2.2175,2.2242,2.2219,2.2224,2.2236,2.2243,2.2249,2.2247,2.2152,0,0,0,0,0,2.2053,2.2076,2.2087,2.2123,2.2131,2.2135,2.2148,2.2146,2.2161,2.2167,2.2175,2.2191,2.2214,2.2229,2.225,2.2295,2.2299,2.2316,2.2322,2.2326,2.2331,2.2356,2.2364,2.228,2.228,2.228,0,0,2.2074,2.2084,2.21,2.2128,2.2139,2.2164,2.214,2.2167,2.2186,2.2171,2.2206,2.2213,2.223,2.2271,2.229,2.2278,2.2355,2.2331,2.2335,2.2337,2.236,2.2368,2.2375,2.2282,2.2282,2.2281,0,0,2.2125,2.2135,2.2167,2.2178,2.2195,2.2198,2.2205,2.222,2.2224,2.226,2.2249,2.2271,2.2311,2.2323,2.2335,2.2392,2.2383,2.2399,2.2429,2.2453,2.246,2.2466,2.2487,2.2494,2.2403,2.2403,2.2403,0,2.2149,2.2186,2.2184,2.2212,2.2225,2.2213,2.2245,2.2256,2.2279,2.2289,2.2276,2.2326,2.2336,2.238,2.2394,2.2404,2.2413,2.2397,2.2459,2.2465,2.247,2.249,2.2498,2.2405,2.2405,2.2405,2.2405,0,2.2216,2.2241,2.2265,2.2288,2.2303,2.2333,2.2336,2.2352,2.2348,2.2352,2.2389,2.2401,2.2425,2.2435,2.2432,2.248,2.2472,2.2459,2.2436,2.248,2.2499,2.2506,2.2408,2.2407,2.2407,2.2406,0,0,2.2283,2.2304,2.2313,2.2323,2.2341,2.2362,2.2391,2.2415,2.2429,2.2446,2.2471,2.2505,2.2493,2.2506,2.2504,2.2526,2.2571,2.251,2.251,2.2521,2.2625,2.2635,2.2643,2.2565,2.2566,2.2567,2.2623,0,2.2336,2.2387,2.2386,2.2434,2.2459,2.2448,2.2473,2.2488,2.2492,2.2514,2.2519,2.2543,2.2526,2.2534,2.2554,2.2561,2.2592,2.2557,2.2589,2.259,2.2585,2.2653,2.2664,2.2716,2.2631,2.2632,2.2633,0,2.2404,2.2423,2.2474,2.2489,2.2499,2.2523,2.2545,2.2565,2.2581,2.2583,2.2598,2.2593,2.2623,2.2599,2.2642,2.2618,2.2631,2.2636,2.2638,2.2641,2.2614,2.2659,2.2733,2.2741,2.2644,2.2643,2.2642,0,2.2449,2.2487,2.2523,2.2532,2.2551,2.2567,2.2576,2.259,2.2605,2.2624,2.2634,2.2656,2.2669,2.2686,2.2687,2.267,2.273,2.2706,2.2733,2.2733,2.2747,2.2746,2.2825,2.2755,2.2755,2.2754,2.2754,0,2.2508,2.254,2.2543,2.2565,2.26,2.2599,2.2634,2.2641,2.2654,2.2677,2.2669,2.2691,2.2691,2.2714,2.2715,2.275,2.2755,2.2758,2.2758,2.2759,2.2759,2.2768,2.2764,2.2756,2.2756,2.2756,2.2755,0,2.2564,2.2568,2.2606,2.262,2.2625,2.265,2.2663,2.2684,2.2688,2.2717,2.2724,2.2731,2.2757,2.276,2.279,2.2791,2.2834,2.283,2.2829,2.2828,2.2855,2.2853,2.2943,2.2954,2.2876,2.2877,2.2878,0,2.2602,2.2627,2.2644,2.2659,2.2668,2.2692,2.2707,2.2707,2.2723,2.2743,2.2762,2.2787,2.2808,2.285,2.2858,2.2881,2.2878,2.2908,2.2882,2.2882,2.2879,2.2878,2.2881,2.2913,2.2914,2.2915,2.2915,0,2.267,2.267,2.2692,2.2715,2.2733,2.275,2.2767,2.278,2.2782,2.28,2.2827,2.2843,2.2874,2.2899,2.2923,2.2932,2.2924,2.2923,2.2931,2.2933,2.2931,2.2933,2.2843,2.2921,2.2921,2.292,2.292,2.292,2.2718,2.2739,2.2755,2.278,2.2792,2.2808,2.2829,2.2836,2.2858,2.2883,2.2882,2.2912,2.2927,2.2958,2.2969,2.2992,2.2982,2.2993,2.2996,2.2999,2.3002,2.2927,2.2996,2.2996,2.2996,2.2996,2.2996,0,2.2786,2.2795,2.2818,2.2842,2.2861,2.2852,2.287,2.2887,2.2914,2.2929,2.2949,2.298,2.3005,2.3015,2.304,2.3057,2.3054,2.3063,2.3062,2.3064,2.3009,2.3,2.3065,2.3065,2.3065,2.3065,2.3065,2.3065,2.2823,2.2859,2.2861,2.2903,2.2912,2.2941,2.2953,2.2967,2.298,2.3015,2.3036,2.3042,2.3055,2.3081,2.3103,2.3105,2.3115,2.3126,2.3127,2.3075,2.3068,2.3061,2.3053,2.3128,2.3128,2.318,2.3181,2.3181]},{"header":{"parameterUnit":"m.s-1","parameterCategory":1,"la1":30.2991,"la2":30.254,"lo1":-89.0895,"lo2":-89.0444,"dy":0.0017,"dx":0.0017,"nx":28,"ny":28,"refTime":"2024-09-28T03:00:00:Z","depth":0,"parameterNumber":3,"parameterNumberName":"V-component_of_WINDS"},"data":[0,0,0,0,0,0,0,0,0,0,0,0,0,0,0,0,0,0,0,0,0,0,0,0,0,0,0,0,0,0,0,0,0,0,0,0,0,0,0,0,0,0,0,0,0,0,0,0,0,0,0,0,0,0,0,0,0,0,0.2893,0.2893,0,0.2873,0.2872,0.2872,0.2875,0.2876,0.2876,0.2876,0.2854,0.2853,0.2852,0,0,0,0,0,0,0,0,0,0,0,0,0,0.2934,0.2933,0.2893,0.2893,0.2893,0.2873,0.2872,0.2872,0.2875,0.2876,0.2876,0.2877,0.2854,0.2853,0.2852,0,0,0,0,0,0,0,0,0,0,0,0,0,0.2915,0.2933,0.2893,0.2892,0.2892,0.2873,0.2872,0.2872,0.2875,0.2876,0.2876,0.2877,0.2855,0.2853,0.2852,0.2833,0,0,0.2848,0.2847,0,0,0,0,0,0,0,0,0.2916,0.2913,0.2892,0.2892,0.2892,0.2877,0.2878,0.2859,0.2875,0.2881,0.2876,0.2877,0.2861,0.2859,0.2854,0.2832,0.2831,0.2847,0.2847,0.2846,0.2846,0,0,0,0,0,0,0,0.2917,0.2914,0.2885,0.2892,0.2892,0.2892,0.289,0.2875,0.2868,0.2881,0.2881,0.2879,0.2861,0.2855,0.2854,0.283,0.2848,0.2846,0.2845,0.2845,0.279,0.279,0,0,0,0,0,0,0.2919,0.2915,0.2886,0.2885,0.2905,0.2891,0.2888,0.2881,0.2869,0.2867,0.2878,0.2879,0.2858,0.2855,0.2853,0.2829,0.2846,0.2845,0.2844,0.2791,0.279,0.2789,0,0,0,0,0,0,0.292,0.2916,0.2887,0.29,0.2896,0.2889,0.2881,0.2881,0.2875,0.2867,0.2865,0.2874,0.2858,0.2855,0.2838,0.2829,0.2844,0.2843,0.2792,0.2791,0.279,0.2782,0,0,0,0,0,0,0.2921,0.2917,0.291,0.29,0.2895,0.2872,0.2881,0.288,0.2873,0.2874,0.2862,0.2861,0.2858,0.284,0.2836,0.2827,0.2842,0.2792,0.2791,0.279,0.2783,0.2781,0.2779,0,0,0,0,0,0.2923,0.2908,0.291,0.2906,0.2887,0.2872,0.2869,0.2867,0.2872,0.2865,0.2859,0.2861,0.283,0.2838,0.2834,0.2824,0.2793,0.2792,0.279,0.2784,0.2781,0.2779,0,0,0,0,0,0,0.2917,0.2907,0.2908,0.2891,0.2882,0.2872,0.2863,0.2864,0.2854,0.2855,0.2851,0.2849,0.2831,0.2826,0.2835,0.2805,0.2812,0.281,0.2809,0.2806,0.2804,0.2806,0.2841,0,0,0,0,0,0.2914,0.2903,0.2895,0.288,0.2876,0.287,0.2863,0.2862,0.2853,0.2849,0.2843,0.2833,0.2821,0.2813,0.2802,0.2782,0.278,0.2773,0.2772,0.277,0.2768,0.2757,0.2754,0.2785,0.2785,0.2785,0,0,0.2907,0.29,0.2894,0.2879,0.2872,0.286,0.2867,0.2854,0.2845,0.2847,0.2831,0.2825,0.2815,0.2796,0.2787,0.2791,0.2759,0.2768,0.2767,0.2766,0.2755,0.2752,0.2749,0.2784,0.2784,0.2784,0,0,0.2889,0.2883,0.287,0.2863,0.2853,0.2849,0.2846,0.2836,0.2832,0.2816,0.2817,0.2806,0.2785,0.2777,0.2771,0.2749,0.275,0.2745,0.2735,0.2724,0.2721,0.2719,0.2711,0.2708,0.2743,0.2743,0.2743,0,0.2882,0.2865,0.2863,0.285,0.2843,0.2844,0.283,0.2824,0.281,0.2805,0.2809,0.2783,0.2776,0.2755,0.275,0.2744,0.274,0.2746,0.2722,0.2719,0.2717,0.2709,0.2706,0.2742,0.2743,0.2743,0.2743,0,0.2856,0.2844,0.2835,0.2822,0.2814,0.2801,0.2796,0.2788,0.2787,0.2782,0.2765,0.2756,0.2743,0.2738,0.2737,0.2717,0.2719,0.2723,0.273,0.2714,0.2706,0.2703,0.2742,0.2742,0.2742,0.2742,0,0,0.2835,0.2821,0.2817,0.2811,0.28,0.279,0.2776,0.2763,0.2756,0.2747,0.2735,0.2717,0.272,0.2712,0.271,0.2701,0.2683,0.2705,0.2705,0.2701,0.266,0.2657,0.2654,0.2684,0.2683,0.2683,0.266,0,0.2815,0.2792,0.2789,0.2768,0.2757,0.2757,0.2745,0.2736,0.2732,0.2721,0.2715,0.2703,0.2708,0.2703,0.2694,0.2687,0.2675,0.2689,0.2672,0.2672,0.2675,0.265,0.2647,0.2627,0.2658,0.2657,0.2657,0,0.279,0.278,0.2757,0.2747,0.2742,0.2731,0.2719,0.2709,0.2698,0.2696,0.2687,0.2686,0.2671,0.2679,0.2658,0.2668,0.2661,0.2657,0.2656,0.2654,0.2663,0.2647,0.262,0.2617,0.2652,0.2653,0.2653,0,0.2776,0.2757,0.2741,0.2735,0.2723,0.2715,0.271,0.27,0.2692,0.2681,0.2676,0.2663,0.2656,0.2646,0.2641,0.2648,0.262,0.2628,0.2617,0.2617,0.2612,0.2612,0.2583,0.2607,0.2607,0.2607,0.2607,0,0.2754,0.2741,0.2734,0.2724,0.2709,0.2705,0.269,0.2684,0.2676,0.2664,0.2664,0.2653,0.2647,0.2636,0.2632,0.2615,0.2612,0.2608,0.2608,0.2608,0.2609,0.2604,0.2605,0.2606,0.2607,0.2607,0.2607,0,0.2736,0.2732,0.2714,0.2704,0.2701,0.269,0.268,0.267,0.2666,0.2651,0.2647,0.264,0.2626,0.262,0.2603,0.26,0.258,0.2581,0.2584,0.2584,0.2573,0.2574,0.2539,0.2535,0.2562,0.2562,0.2562,0,0.2723,0.2713,0.2701,0.2693,0.2688,0.2676,0.2668,0.2664,0.2655,0.2642,0.2634,0.262,0.2609,0.2586,0.2578,0.2565,0.2565,0.2553,0.2563,0.2564,0.2564,0.2565,0.2563,0.2552,0.2552,0.2551,0.2551,0,0.27,0.2698,0.2687,0.2674,0.2665,0.2655,0.2646,0.2639,0.2634,0.2624,0.261,0.2601,0.2583,0.2569,0.2555,0.2549,0.2549,0.2548,0.2545,0.2546,0.2548,0.2546,0.2579,0.2549,0.2549,0.2549,0.255,0.255,0.2683,0.2674,0.2664,0.2652,0.2644,0.2635,0.2625,0.2619,0.2607,0.2593,0.2591,0.2575,0.2564,0.2546,0.2538,0.2526,0.2529,0.2524,0.2523,0.2522,0.2521,0.255,0.2523,0.2523,0.2523,0.2523,0.2523,0,0.266,0.2653,0.2642,0.2629,0.2618,0.262,0.2609,0.26,0.2587,0.2577,0.2566,0.2549,0.2535,0.2526,0.2512,0.2504,0.2503,0.25,0.2501,0.2499,0.2519,0.2523,0.2501,0.2501,0.2501,0.2501,0.2501,0.2501,0.2646,0.263,0.2627,0.2607,0.26,0.2585,0.2579,0.257,0.2562,0.2544,0.2533,0.2527,0.2517,0.2502,0.2489,0.2487,0.2482,0.2478,0.2476,0.2495,0.2498,0.25,0.2504,0.2477,0.2477,0.2457,0.2457,0.2457]}]]